Regional Weather Roundup
Issued by NWS

Home | Current Version | Previous Version | Graphics & Text | Print | Product List | Glossary On
Versions: 1 2 3 4 5 6 7 8 9 10 11 12 13 14 15 16 17 18 19 20 21 22 23 24 25 26 27 28 29 30 31 32 33 34 35 36 37 38 39 40 41 42 43 44 45 46 47 48 49 50
976
ASUS44 KJAN 151603
RWRMS

MISSISSIPPI HOURLY WEATHER ROUNDUP
NATIONAL WEATHER SERVICE JACKSON MS
1100 AM CDT TUE APR 15 2014

NOTE: "FAIR: INDICATES FEW OR NO CLOUDS BELOW 12,000 FEET WITH NO
SIGNIFICANT WEATHER AND/OR OBSTRUCTIONS TO VISIBILITY.

MSZ001>002-007>008-010>013-018>021-025>028-034>036-151700-
NORTHWEST MISSISSIPPI

CITY           SKY/WX    TMP DP  RH WIND       PRES   REMARKS
CLARKSDALE       N/A     45  27  49 N17G28    30.26R
CLEVELAND      FAIR      45  31  58 N21G28    30.26R
GREENWOOD      SUNNY     47  28  47 N15G26    30.23R
GREENVILLE     SUNNY     46  29  51 N18G28    30.26R
GRENADA        FAIR      45  27  49 N13G26    30.22S
OLIVE BRANCH   SUNNY     43  23  45 N23G32    30.22R
OXFORD         FAIR      41  19  42 N16       30.22R
TUNICA         SUNNY     43  27  52 N22G28    30.27R
$$

MSZ003>006-009-014>017-022>024-029>033-037>039-151700-
NORTHEAST MISSISSIPPI

CITY           SKY/WX    TMP DP  RH WIND       PRES   REMARKS
BELMONT        FAIR      43  26  49 NW13G18   30.14R
COLUMBUS AFB   NOT AVBL
CORINTH        FAIR      45  23  42 N12G23    30.17R
GOLDN TRIANGLE MOSUNNY   45  28  53 N13G24    30.17R
STARKVILLE     FAIR      45  30  57 NW13G20   30.16R
TUPELO         SUNNY     45  24  43 N18G25    30.17R
$$

MSZ040-058-151700-
CENTRAL MISSISSIPPI

CITY           SKY/WX    TMP DP  RH WIND       PRES   REMARKS
JACKSON INTL   SUNNY     49  28  44 N17G33    30.20R
JACKSON HAWKNS SUNNY     48  26  42 N15G26    30.21R
MERIDIAN KEY   PTSUNNY   46  31  55 N23       30.13R
MERIDIAN NAS   CLOUDY    45  33  63 NW18G28   30.14R
RAYMOND        FAIR      46  41  81 N12G24    30.22R
VICKSBURG      SUNNY     49  31  49 N16       30.26R
$$

MSZ059>079-151700-
SOUTH MISSISSIPPI

CITY           SKY/WX    TMP DP  RH WIND       PRES   REMARKS
BROOKHAVEN     FAIR      48  32  53 NW18G24   30.19R
COLUMBIA       FAIR      52  36  54 MISG      30.16R
HATTIESBURG    CLOUDY    47  36  65 NW12G25   30.16R
MCCOMB         SUNNY     50  30  46 N20G28    30.18R
NATCHEZ        SUNNY     48  30  49 N18G24    30.23R
PINE BELT      PTSUNNY   48  34  57 NW12G28   30.15R
$$

MSZ080>082-151700-
COASTAL MISSISSIPPI

CITY           SKY/WX    TMP DP  RH WIND       PRES   REMARKS
BAY ST LOUIS   PTSUNNY   50  36  57 N23G35    30.12R
BILOXI         NOT AVBL
PASCAGOULA     CLOUDY    49  41  74 N18G30    30.07R
GULFPORT       CLOUDY    50  38  63 N23G31    30.10R
$$



USA.gov is the U.S. government's official web portal to all federal, state and local government web resources and services.